STARLINK-30258 (57608 NORAD) Tracking and Keplerian Element Data

This shows tracking and keplerian element data for the satellite.

Feedback or suggestion? Click here.




ElementValue
Catalog57608
NameSTARLINK-30258
Epoch Orbit2476
Epoch Day13.17680182
Epoch Year2024
RAAN35.318
Inclination43.0009
Eccentricity9.95E-05
Argument of Perigee216.9217
Mean Anonmoly143.1557
Mean Motion15.02529424
Decay Rate-1.404E-05
L11 57608U 23119G 24013.17680182 -.00001404 00000+0 -88919-4 0 9994
L22 57608 43.0009 35.3180 0000995 216.9217 143.1557 15.02529424 24764



Live tracking and technical data element details for STARLINK-30258 (NORAD 57608). STARLINK-30258 can be tracked NOW for your location showing map with azimuth and elevation plus other details from your city location.







IsCatalogInMostPopularTable: catalog: 57608, numindb: 27
Update: records affected: 1



GetName: 57608 STARLINK-30258

Hit Count: updated at: Thu, 29 Feb 2024 11:20:59 GMT